Search your local weather  

 

Hazardous Weather Conditions

No active alerts for SAN ANTONIO, TEXAS

Current Conditions: SAN ANTONIO, TEXAS

Partly Cloudy


75.0 F

Last Updated on Oct 21 2021, 11:35 am CDT
Humidity: 69%
Wind Speed: N 0.0 mph
Barometer 30.20 in
Dewpoint: 64.4 F
Visibility: 10.00 mi
Precip: --
Heat Index: NA
Wind Chill: NA
Current conditions at:

San Antonio Boerne Stage Field, TX (K5C1)

Lat: 29.7239 Lon: -98.6946

Local Radar Image active severe weather and emergency alerts image image weather storm and storm spotter reports image weather observation monitoring service image
Local
Radar
Active
Alerts
Storm Reports Weather
Monitoring

5 Day Forecast for SAN ANTONIO, TEXAS (78201)

Thursday

Mostly Cloudy

High 85 °F
Thursday
Night
Partly Cloudy

Low 67 °F
Friday

Partly Sunny

High 86 °F
Friday
Night
Mostly Cloudy

Low 69 °F
Saturday

Mostly Cloudy

High 86 °F
Saturday
Night
Mostly Cloudy

Low 71 °F
Sunday

Partly Sunny

High 89 °F
Sunday
Night
Mostly Clear

Low 71 °F
Monday

Partly Sunny

High 89 °F

Sign-up For Email & Text Message Weather Alert Notification Services



Advertise Here

Observation History for SAN ANTONIO, TEXAS


Time Wind
(mph)
Vis
(mi)
Weather Precip (in) Temperature (F) Relative
Humidity
Wind
Chill
(F)
Heat
Index
(F)
Pressure
Air Dwpt altimeter
(in)
sea level
(mb)
11:35 am CDT N 0.0 10.00 Partly Cloudy -- 75.0 64.4 69% NA NA 30.20 M
10:55 am CDT N 0.0 10.00 Overcast -- 73.0 66.2 78% NA NA 30.21 M
10:35 am CDT N 0.0 10.00 Overcast -- 72.0 66.2 83% NA NA 30.21 M
9:55 am CDT N 0.0 10.00 Fair -- 70.0 69.8 100% NA NA 30.21 M
9:35 am CDT N 0.0 10.00 Fair -- 68.0 68.0 100% NA NA 30.20 M
8:55 am CDT N 0.0 2.50 Fair -- 63.0 62.6 100% NA NA 30.18 M
7:55 am CDT N 0.0 10.00 Fair -- 57.0 57.2 100% NA NA 30.17 M
6:55 am CDT N 0.0 10.00 Fair -- 57.0 57.2 100% NA NA 30.16 M
5:55 am CDT N 0.0 10.00 Fair -- 59.0 59.0 100% NA NA 30.14 M
4:55 am CDT N 0.0 10.00 Fair -- 59.0 59.0 100% NA NA 30.13 M
3:55 am CDT N 0.0 10.00 Fair -- 59.0 59.0 100% NA NA 30.13 M
2:55 am CDT N 0.0 7.00 Partly Cloudy -- 59.0 59.0 100% NA NA 30.13 M
1:55 am CDT N 0.0 10.00 Fair -- 59.0 59.0 100% NA NA 30.13 M
12:55 am CDT N 0.0 10.00 Fair -- 61.0 60.8 100% NA NA 30.13 M
12:35 am CDT N 0.0 10.00 Fair -- 61.0 60.8 100% NA NA 30.13 M
11:55 pm CDT N 0.0 10.00 Fair -- 61.0 60.8 100% NA NA 30.14 M
11:35 pm CDT N 0.0 10.00 Fair -- 61.0 60.8 100% NA NA 30.13 M
10:55 pm CDT N 0.0 10.00 Fair -- 63.0 62.6 100% NA NA 30.13 M
10:35 pm CDT N 0.0 10.00 Fair -- 63.0 62.6 100% NA NA 30.13 M
9:55 pm CDT N 0.0 10.00 Fair -- 63.0 62.6 100% NA NA 30.12 M
9:35 pm CDT N 0.0 10.00 Fair -- 64.0 64.4 100% NA NA 30.12 M
8:55 pm CDT N 0.0 10.00 Fair -- 64.0 64.4 100% NA NA 30.11 M
8:35 pm CDT N 0.0 10.00 Fair -- 64.0 64.4 100% NA NA 30.11 M
7:55 pm CDT N 0.0 10.00 Fair -- 68.0 68.0 100% NA NA 30.10 M

Regional Weather Observation

San Antonio, San Antonio International Airport, TX (KSAT)

Mostly Cloudy
78.0 F

Castroville Municipal Airport, TX (KCVB)

Overcast
84.0 F

San Antonio - Kelly Field, TX (KSKF)

Partly Cloudy
80.0 F

San Antonio, Stinson Municipal Airport, TX (KSSF)

Mostly Cloudy
84.0 F

Randolph Air Force Base, TX (KRND)

Partly Cloudy
80.0 F

New Braunfels Regional Airport, TX (KBAZ)

Overcast
80.0 F

Advertise Here


Advertise Here